Вернуться в каталог

COSMOS 978

АктивенНавигацияLEO
NORAD 10585·PAYLOAD·🇷🇺 Russia

Запущен Jan 10, 1978 с Plesetsk Cosmodrome

Loading…

Ближайшие Пролёты (ближайшие 24 часа)

TLE

СвежийSource: Space-Track

Эпоха: Sep 14, 2026, 14:33 UTC

1 10585U 78005C   26257.60650647  .00000007  00000-0  13824-3 0  9993
2 10585  74.0330 320.9734 0028191  92.0807 339.6857 12.55702185220486

Отслеживайте COSMOS 978 в реальном времени с AllMySat

Download on the App Store